TimeCDT,TemperatureF,Dew PointF,Humidity,Sea Level PressureIn,VisibilityMPH,Wind Direction,Wind SpeedMPH,Gust SpeedMPH,PrecipitationIn,Events,Conditions,WindDirDegrees,DateUTC
12:54 AM,41.0,39.9,96,29.96,2.5,East,6.9,-,0.00,Rain,Light Rain,80,2013-04-23 05:54:00
1:06 AM,41.0,39.2,93,29.92,2.0,East,3.5,-,0.00,Rain,Light Rain,100,2013-04-23 06:06:00
1:43 AM,41.0,41.0,100,29.90,2.0,ESE,4.6,-,0.00,Rain,Light Rain,120,2013-04-23 06:43:00
1:54 AM,41.0,41.0,100,29.92,1.8,ESE,4.6,-,0.00,Rain,Light Rain,120,2013-04-23 06:54:00
2:05 AM,42.8,41.0,93,29.88,2.0,SE,5.8,-,0.00,Rain,Light Rain,130,2013-04-23 07:05:00
2:27 AM,42.8,42.8,100,29.87,2.5,SSE,5.8,-,0.00,Rain,Light Rain,160,2013-04-23 07:27:00
2:31 AM,42.8,42.8,100,29.87,3.0,South,6.9,-,0.00,Rain,Light Rain,170,2013-04-23 07:31:00
2:38 AM,42.8,42.8,100,29.87,3.0,South,6.9,-,0.00,Rain,Light Rain,170,2013-04-23 07:38:00
2:49 AM,42.8,42.8,100,29.87,2.5,South,6.9,-,0.00,Rain,Light Rain,180,2013-04-23 07:49:00
2:54 AM,44.1,43.0,96,29.89,2.5,South,9.2,-,0.00,Rain,Light Rain,180,2013-04-23 07:54:00
2:59 AM,44.6,44.6,100,29.86,3.0,South,8.1,-,0.00,Rain,Light Rain,180,2013-04-23 07:59:00
3:12 AM,44.6,44.6,100,29.86,4.0,WSW,10.4,-,0.01,Rain,Light Rain,240,2013-04-23 08:12:00
3:25 AM,39.2,37.4,93,29.88,4.0,West,18.4,25.3,0.01,Rain,Light Rain,270,2013-04-23 08:25:00
3:33 AM,37.4,35.6,93,29.89,8.0,West,13.8,24.2,0.01,Rain,Light Rain,280,2013-04-23 08:33:00
3:54 AM,35.1,34.0,96,29.94,10.0,West,13.8,20.7,0.01,Rain,Light Rain,280,2013-04-23 08:54:00
4:29 AM,33.8,32.0,93,29.89,10.0,West,13.8,-,0.00,Rain,Light Rain,280,2013-04-23 09:29:00
4:54 AM,33.1,32.0,96,29.92,10.0,WNW,11.5,-,0.00,,Overcast,290,2013-04-23 09:54:00
5:10 AM,33.8,32.0,93,29.88,10.0,West,10.4,-,N/A,,Overcast,280,2013-04-23 10:10:00
5:54 AM,33.1,32.0,96,29.95,10.0,WNW,9.2,-,N/A,,Overcast,300,2013-04-23 10:54:00
6:07 AM,33.8,30.2,87,29.91,10.0,NW,13.8,-,N/A,,Overcast,310,2013-04-23 11:07:00
6:15 AM,33.8,30.2,87,29.92,10.0,NW,13.8,-,N/A,,Overcast,310,2013-04-23 11:15:00
6:54 AM,33.1,30.0,89,29.98,10.0,NW,16.1,-,N/A,,Overcast,310,2013-04-23 11:54:00
7:54 AM,33.1,30.0,89,29.98,10.0,NNW,17.3,-,N/A,,Overcast,330,2013-04-23 12:54:00
8:03 AM,33.8,30.2,87,29.95,10.0,NNW,16.1,21.9,N/A,,Overcast,340,2013-04-23 13:03:00
8:54 AM,34.0,28.9,82,29.99,10.0,NNW,16.1,25.3,N/A,,Overcast,340,2013-04-23 13:54:00
9:54 AM,34.0,28.0,79,30.02,10.0,North,13.8,23.0,N/A,,Overcast,360,2013-04-23 14:54:00
10:54 AM,36.0,30.0,79,30.03,10.0,NNW,16.1,23.0,N/A,,Overcast,340,2013-04-23 15:54:00
11:54 AM,36.0,28.9,76,30.04,10.0,NNW,20.7,25.3,N/A,,Overcast,340,2013-04-23 16:54:00
12:54 PM,36.0,28.9,76,30.04,10.0,NNW,17.3,24.2,N/A,,Overcast,340,2013-04-23 17:54:00
1:54 PM,37.0,28.9,73,30.03,10.0,North,15.0,-,N/A,,Overcast,350,2013-04-23 18:54:00
2:54 PM,37.9,28.0,68,30.02,10.0,NNW,12.7,23.0,N/A,,Overcast,340,2013-04-23 19:54:00
3:54 PM,37.0,28.0,70,30.02,10.0,NNW,13.8,-,N/A,,Overcast,330,2013-04-23 20:54:00
4:54 PM,37.0,28.0,70,30.03,10.0,NNW,13.8,-,N/A,,Overcast,340,2013-04-23 21:54:00
5:54 PM,37.0,27.0,67,30.03,10.0,North,10.4,-,N/A,,Overcast,350,2013-04-23 22:54:00
6:54 PM,36.0,25.0,64,30.03,10.0,North,11.5,-,N/A,,Clear,350,2013-04-23 23:54:00
7:54 PM,35.1,24.1,64,30.04,10.0,NNE,5.8,-,N/A,,Clear,20,2013-04-24 00:54:00
8:54 PM,33.1,24.1,70,30.05,10.0,NE,5.8,-,N/A,,Clear,40,2013-04-24 01:54:00
9:54 PM,32.0,23.0,69,30.05,10.0,NNE,3.5,-,N/A,,Clear,30,2013-04-24 02:54:00
10:54 PM,28.9,24.1,82,30.05,10.0,Calm,Calm,-,N/A,,Clear,0,2013-04-24 03:54:00
11:54 PM,28.0,24.1,85,30.05,10.0,West,3.5,-,N/A,,Clear,270,2013-04-24 04:54:00